Benbecula, United Kingdom

9:02 AM BST on August 25, 2016 (GMT +0100)
Benbecula

Weather History for EGPL - March, 2013

Change the Weather History Date:

Wednesday, March 13, 2013

  Actual Average Record
Temperature  
Mean Temperature 38 °F -  
Max Temperature 44 °F 47 °F 51 °F (2016)
Min Temperature 32 °F 39 °F 32 °F (2005)
Degree Days  
Heating Degree Days 27    
Moisture  
Dew Point 33 °F    
Average Humidity 84    
Maximum Humidity 93    
Minimum Humidity 61    
Precipitation  
Precipitation 0.00 in - - ()
Sea Level Pressure  
Sea Level Pressure 30.02 in    
Wind  
Wind Speed 7 mph ()    
Max Wind Speed 12 mph    
Max Gust Speed -    
Visibility 6.2 miles    
Events Rain    
Averages and records for this station are not official NWS values.
T = Trace of Precipitation, MM = Missing Value Source: Averaged Metar Reports

Daily Weather History Graph

Daily Weather History Graph

Search for Another Location

Airport or City:

Trip Planner

Search our weather history database for the weather conditions in past years. The results will help you decide how hot, cold, wet, or windy it might be!

Date:

Astronomy

Mar. 13, 2013 Rise Set
Actual Time 6:50 AM GMT 6:28 PM GMT
Civil Twilight 6:12 AM GMT 7:06 PM GMT
Nautical Twilight 5:26 AM GMT 7:52 PM GMT
Astronomical Twilight 4:39 AM GMT 8:39 PM GMT
Moon 6:54 AM GMT (3/13) 9:06 PM GMT (3/13)
Length of Visible Light 12h 54m
Length of Day
11h 37m
Waxing Crescent, 3% of the Moon is Illuminated
Mar 13
Waxing Crescent
Mar 19
First Quarter
Mar 27
Full
Apr 3
Last Quarter
Apr 10
New

Hourly Weather History & Observations

Time (GMT) Temp. Windchill Dew Point Humidity Pressure Visibility Wind Dir Wind Speed Gust Speed Precip Events Conditions
12:20 AM 35.6 °F 27.5 °F 33.8 °F 93% 30.01 in 6.2 mi NNE 11.5 mph - N/A   Mostly Cloudy
12:50 AM 35.6 °F 29.9 °F 33.8 °F 93% 30.01 in 6.2 mi North 6.9 mph - N/A   Scattered Clouds
1:20 AM 35.6 °F 30.7 °F 33.8 °F 93% 30.01 in 6.2 mi North 5.8 mph - N/A   Scattered Clouds
1:50 AM 35.6 °F 31.7 °F 33.8 °F 93% 30.01 in 6.2 mi North 4.6 mph - N/A   Partly Cloudy
2:20 AM 35.6 °F 29.9 °F 33.8 °F 93% 30.01 in 6.2 mi NNW 6.9 mph - N/A Rain Light Rain
2:50 AM 37.4 °F 30.8 °F 35.6 °F 93% 29.98 in 6.2 mi NNW 9.2 mph - N/A   Scattered Clouds
3:20 AM 37.4 °F 30.8 °F 35.6 °F 93% 29.98 in 6.2 mi NNW 9.2 mph - N/A   Scattered Clouds
3:50 AM 35.6 °F 29.9 °F 33.8 °F 93% 29.98 in 6.2 mi NNE 6.9 mph - N/A   Mostly Cloudy
4:20 AM 35.6 °F 28.0 °F 32.0 °F 87% 29.98 in 6.2 mi NE 10.4 mph - N/A   Unknown
4:50 AM 33.8 °F 27.7 °F 32.0 °F 93% 29.98 in 6.2 mi NNE 6.9 mph - N/A   Scattered Clouds
5:20 AM 33.8 °F 27.7 °F 32.0 °F 93% 29.98 in 6.2 mi North 6.9 mph - N/A   Scattered Clouds
5:50 AM 33.8 °F 27.7 °F 32.0 °F 93% 29.98 in 6.2 mi NNE 6.9 mph - N/A   Unknown
6:20 AM 33.8 °F 25.3 °F 32.0 °F 93% 29.98 in 6.2 mi NNE 11.5 mph - N/A   Scattered Clouds
6:50 AM 33.8 °F 27.7 °F 32.0 °F 93% 29.98 in 6.2 mi North 6.9 mph - N/A   Unknown
7:20 AM 33.8 °F 27.0 °F 32.0 °F 93% 29.98 in 6.2 mi NE 8.1 mph - N/A   Scattered Clouds
7:50 AM 35.6 °F 29.9 °F 33.8 °F 93% 30.01 in 6.2 mi NNE 6.9 mph - N/A   Scattered Clouds
8:50 AM 37.4 °F 31.4 °F 33.8 °F 87% 30.01 in 6.2 mi NNE 8.1 mph - N/A   Scattered Clouds
9:20 AM 37.4 °F 32.8 °F 33.8 °F 87% 30.01 in 6.2 mi North 5.8 mph - N/A   Scattered Clouds
9:50 AM 39.2 °F 35.9 °F 35.6 °F 87% 30.01 in 6.2 mi North 4.6 mph - N/A   Scattered Clouds
10:20 AM 41.0 °F 35.8 °F 35.6 °F 81% 30.01 in 6.2 mi North 8.1 mph - N/A   Scattered Clouds
10:50 AM 41.0 °F 36.4 °F 35.6 °F 81% 30.01 in 6.2 mi North 6.9 mph - N/A   Scattered Clouds
11:20 AM 37.4 °F 30.3 °F 35.6 °F 93% 30.04 in 6.2 mi ENE 10.4 mph - N/A   Scattered Clouds
11:50 AM 41.0 °F 37.1 °F 35.6 °F 81% 30.04 in 6.2 mi ENE 5.8 mph - N/A   Scattered Clouds
12:20 PM 42.8 °F 37.0 °F 33.8 °F 70% 30.04 in 6.2 mi NNE 10.4 mph - N/A   Scattered Clouds
12:50 PM 42.8 °F 37.5 °F 32.0 °F 66% 30.04 in 6.2 mi North 9.2 mph - N/A   Scattered Clouds
1:20 PM 42.8 °F 37.5 °F 30.2 °F 61% 30.04 in 6.2 mi North 9.2 mph - N/A   Scattered Clouds
1:50 PM 42.8 °F 37.0 °F 30.2 °F 61% 30.01 in 6.2 mi North 10.4 mph - N/A   Scattered Clouds
2:20 PM 44.6 °F 39.2 °F 32.0 °F 61% 30.01 in 6.2 mi North 10.4 mph - N/A   Scattered Clouds
2:50 PM 42.8 °F 36.6 °F 30.2 °F 61% 30.01 in 6.2 mi North 11.5 mph - N/A   Scattered Clouds
3:20 PM 39.2 °F 32.0 °F 33.8 °F 81% 30.04 in 6.2 mi North 11.5 mph - N/A   Scattered Clouds
3:50 PM 41.0 °F 35.2 °F 32.0 °F 70% 30.04 in 6.2 mi North 9.2 mph - N/A   Scattered Clouds
4:20 PM 41.0 °F 35.2 °F 32.0 °F 70% 30.04 in 6.2 mi North 9.2 mph - N/A   Scattered Clouds
4:50 PM 39.2 °F 33.0 °F 30.2 °F 70% 30.04 in 6.2 mi North 9.2 mph - N/A   Scattered Clouds
5:20 PM 41.0 °F 35.8 °F 32.0 °F 70% 30.04 in 6.2 mi NNW 8.1 mph - N/A   Mostly Cloudy
5:50 PM 37.4 °F 33.8 °F 30.2 °F 75% 30.04 in 6.2 mi North 4.6 mph - N/A   Unknown
6:20 PM 35.6 °F 30.7 °F 30.2 °F 81% 30.04 in 6.2 mi North 5.8 mph - N/A   Unknown
6:50 PM 33.8 °F 30.8 °F 28.4 °F 81% 30.04 in 6.2 mi North 3.5 mph - N/A   Unknown
7:20 PM 32.0 °F - 28.4 °F 87% 30.04 in 6.2 mi Calm Calm - N/A   Mostly Cloudy
7:50 PM 33.8 °F - 30.2 °F 87% 30.04 in 6.2 mi Calm Calm - N/A   Unknown
8:20 PM 33.8 °F - 32.0 °F 93% 30.04 in 6.2 mi WSW 2.3 mph - N/A   Unknown
8:50 PM 32.0 °F - 30.2 °F 93% 30.04 in 6.2 mi Variable 2.3 mph - N/A   Unknown
9:20 PM 32.0 °F - 30.2 °F 93% 30.04 in 6.2 mi NNW 2.3 mph - N/A   Unknown
9:50 PM 33.8 °F - 32.0 °F 93% 30.04 in 6.2 mi Calm Calm - N/A   Scattered Clouds
10:20 PM 37.4 °F 32.8 °F 33.8 °F 87% 30.01 in 6.2 mi WNW 5.8 mph - N/A   Mostly Cloudy
10:50 PM 37.4 °F - 33.8 °F 87% 30.01 in 6.2 mi WNW 2.3 mph - N/A   Scattered Clouds
11:20 PM 37.4 °F - 33.8 °F 87% 30.01 in 6.2 mi North 2.3 mph - N/A   Mostly Cloudy
11:50 PM 37.4 °F - 33.8 °F 87% 30.01 in 6.2 mi Calm Calm - N/A   Mostly Cloudy